Location: Saint-Denis
(20.8800°S, 55.4481°E)
Time: 14:35:43
(UTC+04:00)

Hubble Space Telescope - Visible Passes

Search period start: 21 January 2026 00:00
Search period end: 31 January 2026 00:00
Orbit: 479 x 481 km, 28.5° (Epoch: 20 January)

Date Brightness Start Highest point End Pass type
(mag) Time Alt. Az. Time Alt. Az. Time Alt. Az.
22 Jan 2.7 05:14:23 10° NNW 05:16:59 18° NNE 05:19:35 10° ENE visible
23 Jan 2.6 04:45:24 14° N 04:47:08 18° NNE 04:49:46 10° ENE visible
24 Jan 2.6 04:17:18 18° NNE 04:17:18 18° NNE 04:19:55 10° ENE visible
25 Jan 3.2 03:49:07 14° ENE 03:49:07 14° ENE 03:50:02 10° ENE visible
25 Jan 0.5 05:23:15 10° WNW 05:27:00 89° NNE 05:30:49 10° ESE visible
26 Jan 0.5 04:55:01 26° WNW 04:57:04 89° NNE 05:00:53 10° ESE visible
27 Jan 0.3 04:26:42 71° WNW 04:27:06 90° NNE 04:30:55 10° ESE visible
28 Jan 1.8 03:58:21 41° ESE 03:58:21 41° ESE 04:00:55 10° ESE visible
29 Jan 3.4 03:29:57 17° ESE 03:29:57 17° ESE 03:30:53 10° ESE visible
29 Jan 2.0 05:04:03 12° WSW 05:07:05 31° S 05:10:31 10° SE visible
30 Jan 1.9 04:35:37 24° SW 04:37:01 31° S 04:40:27 10° SE visible
